�������l�o���
Date,Time,MP-1(��Sv/h),MP-2(��Sv/h),MP-3(��Sv/h),MP-4(��Sv/h),MP-5(��Sv/h),MP-6(��Sv/h),MP-7(��Sv/h),����,����(m/s),���J
2015/02/03,00:00,0.497,0.355,0.576,0.524,-,0.249,0.227,�k�k��,8.8,��
2015/02/03,00:10,0.496,0.355,0.575,0.524,-,0.249,0.228,�k��,5.9,��
2015/02/03,00:20,0.494,0.355,0.577,0.524,-,0.249,0.227,�k��,6.1,��
2015/02/03,00:30,0.495,0.353,0.576,0.525,-,0.249,0.225,�k��,5.1,��
2015/02/03,00:40,0.494,0.354,0.576,0.523,-,0.248,0.226,�k��,4.5,��
2015/02/03,00:50,0.496,0.354,0.575,0.524,-,0.248,0.225,�k��,3.6,��
2015/02/03,01:00,0.496,0.354,0.576,0.525,-,0.249,0.226,�k��,3.1,��
2015/02/03,01:10,0.495,0.354,0.575,0.523,-,0.249,0.228,�k�k��,2.8,��
2015/02/03,01:20,0.496,0.355,0.574,0.524,-,0.248,0.227,�k�k��,2.5,��
2015/02/03,01:30,0.495,0.354,0.576,0.524,-,0.249,0.226,�k�k��,2.8,��
2015/02/03,01:40,0.496,0.355,0.577,0.523,-,0.248,0.225,�k��,2.1,��
2015/02/03,01:50,0.495,0.355,0.575,0.522,-,0.248,0.227,���k��,1.5,��
2015/02/03,02:00,0.495,0.354,0.575,0.522,-,0.248,0.227,�k��,1.4,��
2015/02/03,02:10,0.496,0.356,0.577,0.524,-,0.248,0.226,�k��,1.7,��
2015/02/03,02:20,0.494,0.355,0.575,0.525,-,0.249,0.226,�k�k��,1.4,��
2015/02/03,02:30,0.495,0.354,0.575,0.525,-,0.249,0.225,�k�k��,1.8,��
2015/02/03,02:40,0.494,0.353,0.576,0.525,-,0.249,0.225,�k�k��,1.8,��
2015/02/03,02:50,0.494,0.355,0.575,0.524,-,0.248,0.225,�k�k��,1.4,��
2015/02/03,03:00,0.496,0.355,0.576,0.524,-,0.249,0.226,�k��,1.2,��
2015/02/03,03:10,0.496,0.356,0.574,0.523,-,0.249,0.225,���k��,3.8,��
2015/02/03,03:20,0.497,0.355,0.576,0.524,-,0.248,0.226,���k��,3.1,��
2015/02/03,03:30,0.496,0.354,0.576,0.524,-,0.249,0.226,���k��,3.5,��
2015/02/03,03:40,0.494,0.354,0.576,0.524,-,0.248,0.225,�k��,3.3,��
2015/02/03,03:50,0.495,0.354,0.576,0.525,-,0.249,0.226,�k��,3.3,��
2015/02/03,04:00,0.493,0.355,0.576,0.524,-,0.248,0.224,���k��,3.0,��
2015/02/03,04:10,0.493,0.353,0.578,0.524,-,0.249,0.224,�k��,2.1,��
2015/02/03,04:20,0.494,0.355,0.575,0.523,-,0.249,0.225,�k�k��,2.1,��
2015/02/03,04:30,0.495,0.354,0.577,0.525,-,0.249,0.225,�k��,3.4,��
2015/02/03,04:40,0.495,0.354,0.576,0.523,-,0.249,0.225,�k�k��,3.7,��
2015/02/03,04:50,0.494,0.355,0.576,0.524,-,0.249,0.225,�k�k��,4.5,��
2015/02/03,05:00,0.493,0.354,0.576,0.525,-,0.249,0.226,�k�k��,4.5,��
2015/02/03,05:10,0.495,0.355,0.576,0.526,-,0.248,0.225,�k�k��,4.8,��
2015/02/03,05:20,0.494,0.354,0.575,0.526,-,0.248,0.226,�k��,4.7,��
2015/02/03,05:30,0.495,0.355,0.575,0.524,-,0.248,0.225,�k��,3.3,��
2015/02/03,05:40,0.493,0.353,0.575,0.525,-,0.248,0.226,�k��,3.4,��
2015/02/03,05:50,0.493,0.354,0.575,0.523,-,0.248,0.227,�k��,4.3,��
2015/02/03,06:00,0.496,0.355,0.576,0.525,-,0.248,0.225,�k��,5.2,��
2015/02/03,06:10,0.494,0.353,0.577,0.525,-,0.247,0.225,�k��,4.7,��
2015/02/03,06:20,0.493,0.354,0.576,0.525,-,0.249,0.224,�k��,3.9,��
2015/02/03,06:30,0.493,0.354,0.575,0.523,-,0.249,0.226,�k�k��,2.5,��
2015/02/03,06:40,0.494,0.354,0.576,0.523,-,0.248,0.226,�k,3.1,��
2015/02/03,06:50,0.495,0.355,0.576,0.524,-,0.248,0.226,�k�k��,3.3,��
2015/02/03,07:00,0.494,0.356,0.577,0.524,-,0.247,0.226,�k�k��,3.1,��
2015/02/03,07:10,0.495,0.353,0.575,0.525,-,0.248,0.226,�k��,3.1,��
2015/02/03,07:20,0.495,0.354,0.576,0.523,-,0.248,0.226,�k��,3.3,��
2015/02/03,07:30,0.493,0.355,0.575,0.524,-,0.249,0.226,�k��,2.7,��
2015/02/03,07:40,0.494,0.354,0.576,0.523,-,0.248,0.226,�k��,3.0,��
2015/02/03,07:50,0.495,0.353,0.576,0.524,-,0.247,0.227,�k��,3.9,��
2015/02/03,08:00,0.496,0.354,0.576,0.524,-,0.248,0.227,�k�k��,2.9,��
2015/02/03,08:10,0.494,0.355,0.576,0.525,-,0.249,0.226,�k,3.4,��
2015/02/03,08:20,0.495,0.355,0.577,0.525,-,0.248,0.225,�k,3.3,��
2015/02/03,08:30,0.496,0.355,0.577,0.525,-,0.248,0.225,�k,3.3,��
2015/02/03,08:40,0.497,0.355,0.578,0.525,-,0.249,0.225,�k�k��,4.3,��
2015/02/03,08:50,0.495,0.354,0.576,0.524,-,0.248,0.227,�k�k��,3.8,��
2015/02/03,09:00,0.495,0.356,0.576,0.526,-,0.249,0.225,�k�k��,2.7,��
2015/02/03,09:10,0.498,0.356,0.576,0.525,-,0.247,0.225,�k,1.6,��
2015/02/03,09:20,0.494,0.355,0.577,0.526,-,0.248,0.225,-,CALM,��
2015/02/03,09:30,0.495,0.354,0.577,0.526,-,0.250,0.225,�k,1.0,��
2015/02/03,09:40,0.495,0.354,0.578,0.526,-,0.249,0.225,�k�k��,2.1,��
2015/02/03,09:50,0.497,0.353,0.576,0.526,-,0.248,0.226,�k�k��,2.0,��
2015/02/03,10:00,0.495,0.355,0.577,0.524,-,0.247,0.225,�k�k��,2.0,��
2015/02/03,10:10,0.495,0.354,0.577,0.523,-,0.248,0.225,�k�k��,2.2,��
2015/02/03,10:20,0.496,0.355,0.577,0.526,-,0.247,0.225,���k��,2.7,��
2015/02/03,10:30,0.495,0.356,0.578,0.525,-,0.248,0.226,���k��,2.5,��
2015/02/03,10:40,0.494,0.355,0.577,0.527,-,0.248,0.225,���k��,3.0,��
2015/02/03,10:50,0.496,0.357,0.578,0.527,-,0.248,0.226,���k��,2.8,��
2015/02/03,11:00,0.494,0.355,0.577,0.526,-,0.248,0.225,�k�k��,2.4,��
2015/02/03,11:10,0.496,0.356,0.578,0.527,-,0.248,0.226,���k��,4.5,��
2015/02/03,11:20,0.497,0.354,0.579,0.525,-,0.250,0.226,���k��,4.0,��
2015/02/03,11:30,0.496,0.356,0.577,0.526,-,0.249,0.227,�k��,6.3,��
2015/02/03,11:40,0.495,0.356,0.579,0.527,-,0.248,0.225,�k��,4.8,��
2015/02/03,11:50,0.497,0.356,0.578,0.528,-,0.249,0.224,�k��,5.3,��
2015/02/03,12:00,0.494,0.357,0.578,0.526,-,0.249,0.225,���k��,5.1,��
2015/02/03,12:10,0.497,0.355,0.580,0.527,-,0.249,0.225,���k��,6.2,��
2015/02/03,12:20,0.497,0.356,0.579,0.529,-,0.248,0.225,���k��,7.4,��
2015/02/03,12:30,0.497,0.358,0.580,0.529,-,0.249,0.226,�k��,7.4,��
2015/02/03,12:40,0.498,0.357,0.579,0.529,-,0.249,0.226,�k��,6.1,��
2015/02/03,12:50,0.500,0.357,0.579,0.530,-,0.249,0.226,�k��,3.1,��
2015/02/03,13:00,0.499,0.358,0.579,0.528,-,0.249,0.227,�k��,3.9,��
2015/02/03,13:10,0.501,0.358,0.580,0.530,-,0.250,0.226,���k��,5.6,��
2015/02/03,13:20,0.501,0.358,0.580,0.531,-,0.251,0.226,���k��,3.9,��
2015/02/03,13:30,0.500,0.357,0.579,0.531,-,0.250,0.227,�k��,5.9,��
2015/02/03,13:40,0.502,0.358,0.582,0.529,-,0.250,0.225,�k��,5.5,��
2015/02/03,13:50,0.500,0.358,0.582,0.531,-,0.249,0.227,���k��,4.9,��
2015/02/03,14:00,0.499,0.359,0.581,0.531,-,0.250,0.226,�k��,5.2,��
2015/02/03,14:10,0.503,0.358,0.582,0.533,-,0.250,0.226,�k�k��,5.6,��
2015/02/03,14:20,0.502,0.360,0.583,0.532,-,0.249,0.227,�k�k��,6.4,��
2015/02/03,14:30,0.500,0.359,0.581,0.531,-,0.251,0.227,�k�k��,4.9,��
2015/02/03,14:40,0.504,0.358,0.583,0.532,-,0.250,0.227,�k�k��,6.7,��
2015/02/03,14:50,0.502,0.359,0.582,0.532,-,0.250,0.226,�k,5.5,��
2015/02/03,15:00,0.503,0.359,0.582,0.533,-,0.251,0.225,�k,3.9,��
2015/02/03,15:10,0.503,0.358,0.583,0.532,-,0.250,0.227,�k,5.1,��
2015/02/03,15:20,0.505,0.360,0.583,0.532,-,0.251,0.226,�k�k��,6.5,��
2015/02/03,15:30,0.502,0.359,0.585,0.533,-,0.250,0.228,�k,6.0,��
2015/02/03,15:40,0.504,0.360,0.585,0.533,-,0.251,0.226,�k,5.1,��
2015/02/03,15:50,0.506,0.360,0.585,0.532,-,0.252,0.228,�k,4.1,��
2015/02/03,16:00,0.503,0.359,0.585,0.532,-,0.250,0.228,�k,2.8,��
2015/02/03,16:10,0.503,0.360,0.584,0.533,-,0.250,0.228,�k,3.3,��
2015/02/03,16:20,0.503,0.360,0.585,0.532,-,0.250,0.227,�k,3.3,��
2015/02/03,16:30,0.505,0.359,0.584,0.533,-,0.251,0.227,�k,3.1,��
2015/02/03,16:40,0.503,0.359,0.584,0.533,-,0.250,0.228,�k,2.8,��
2015/02/03,16:50,0.504,0.359,0.585,0.534,-,0.251,0.227,�k,4.3,��
2015/02/03,17:00,0.506,0.359,0.585,0.534,-,0.251,0.227,�k�k��,3.4,��
2015/02/03,17:10,0.504,0.360,0.585,0.532,-,0.251,0.227,���k��,2.1,��
2015/02/03,17:20,0.504,0.359,0.584,0.532,-,0.251,0.228,���k��,2.2,��
2015/02/03,17:30,0.504,0.358,0.585,0.533,-,0.251,0.227,���k��,2.6,��
2015/02/03,17:40,0.505,0.360,0.585,0.533,-,0.251,0.227,��,3.2,��
2015/02/03,17:50,0.503,0.360,0.586,0.532,-,0.251,0.228,���k��,4.2,��
2015/02/03,18:00,0.503,0.359,0.584,0.533,-,0.252,0.226,���k��,3.6,��
2015/02/03,18:10,0.504,0.360,0.585,0.532,-,0.252,0.227,���k��,2.4,��
2015/02/03,18:20,0.504,0.359,0.585,0.533,-,0.252,0.227,���k��,3.4,��
2015/02/03,18:30,0.504,0.359,0.585,0.534,-,0.251,0.227,���k��,3.6,��
2015/02/03,18:40,0.503,0.359,0.585,0.533,-,0.251,0.226,�k��,2.3,��
2015/02/03,18:50,0.504,0.359,0.586,0.534,-,0.251,0.228,�k�k��,2.0,��
2015/02/03,19:00,0.505,0.360,0.587,0.534,-,0.250,0.227,���k��,1.9,��
2015/02/03,19:10,0.503,0.359,0.585,0.535,-,0.252,0.228,���k��,1.2,��
2015/02/03,19:20,0.504,0.360,0.584,0.534,-,0.252,0.227,�k��,1.4,��
2015/02/03,19:30,0.504,0.360,0.586,0.534,-,0.253,0.227,�k��,0.8,��
2015/02/03,19:40,0.505,0.359,0.586,0.534,-,0.251,0.228,���k��,1.5,��
2015/02/03,19:50,0.504,0.358,0.586,0.534,-,0.252,0.226,���k��,2.1,��
2015/02/03,20:00,0.504,0.359,0.586,0.536,-,0.251,0.227,���k��,4.0,��
2015/02/03,20:10,0.505,0.361,0.585,0.534,-,0.251,0.228,���k��,1.9,��
2015/02/03,20:20,0.505,0.359,0.585,0.536,-,0.252,0.228,���k��,2.1,��
2015/02/03,20:30,0.506,0.360,0.587,0.534,-,0.251,0.228,�k��,1.7,��
2015/02/03,20:40,0.505,0.359,0.587,0.534,-,0.252,0.227,���k��,3.1,��
2015/02/03,20:50,0.506,0.360,0.586,0.536,-,0.250,0.227,���k��,4.1,��
2015/02/03,21:00,0.504,0.359,0.588,0.534,-,0.250,0.229,��,3.9,��
2015/02/03,21:10,0.505,0.359,0.588,0.535,-,0.251,0.227,��,3.8,��
2015/02/03,21:20,0.505,0.361,0.587,0.535,-,0.251,0.227,��,4.6,��
2015/02/03,21:30,0.505,0.360,0.587,0.532,-,0.251,0.228,��,3.9,��
2015/02/03,21:40,0.504,0.360,0.585,0.535,-,0.251,0.227,��,4.8,��
2015/02/03,21:50,0.504,0.359,0.587,0.536,-,0.252,0.226,��,3.7,��
2015/02/03,22:00,0.505,0.360,0.587,0.536,-,0.251,0.227,���k��,5.0,��
2015/02/03,22:10,0.504,0.360,0.586,0.533,-,0.253,0.227,���k��,3.3,��
2015/02/03,22:20,0.504,0.359,0.585,0.536,-,0.251,0.226,���k��,2.7,��
2015/02/03,22:30,0.506,0.359,0.587,0.535,-,0.252,0.227,��,3.3,��
2015/02/03,22:40,0.504,0.359,0.587,0.535,-,0.252,0.227,��,3.4,��
2015/02/03,22:50,0.505,0.359,0.586,0.533,-,0.252,0.228,��,3.6,��
2015/02/03,23:00,0.506,0.360,0.586,0.534,-,0.251,0.226,���k��,3.4,��
2015/02/03,23:10,0.506,0.360,0.585,0.535,-,0.250,0.228,���k��,4.1,��
2015/02/03,23:20,0.505,0.359,0.585,0.535,-,0.250,0.227,�k��,2.4,��
2015/02/03,23:30,0.506,0.359,0.586,0.535,-,0.251,0.228,���k��,1.9,��
2015/02/03,23:40,0.507,0.359,0.587,0.534,-,0.251,0.226,���k��,2.5,��
2015/02/03,23:50,0.505,0.358,0.586,0.535,-,0.252,0.228,��,2.2,��
